Location: Bowman Observatory
(41.0326°N, 73.6210°W)
Time: 20:14:14
(UTC-05:00)

Cosmos 2297 - Visible Passes

Search period start: 17 November 2017 00:00
Search period end: 27 November 2017 00:00
Orbit: 834 x 860 km, 71.0° (Epoch: 17 November)

Date Brightness Start Highest point End Pass type
(mag) Time Alt. Az. Time Alt. Az. Time Alt. Az.
17 Nov 5.4 04:00:26 16° N 04:04:05 30° NE 04:09:03 10° ESE visible
17 Nov 4.2 05:43:00 10° NW 05:48:21 41° WSW 05:53:40 10° S visible
17 Nov 4.2 18:50:39 10° S 18:54:48 46° SSE 18:54:48 46° SSE visible
17 Nov 6.5 20:36:26 10° WSW 20:36:49 11° W 20:36:49 11° W visible
18 Nov 5.4 03:48:16 22° NNE 03:50:43 29° NE 03:55:40 10° ESE visible
18 Nov 4.1 05:30:16 13° NW 05:35:00 42° WSW 05:40:20 10° S visible
18 Nov 3.7 18:37:19 10° S 18:42:53 58° ESE 18:42:54 58° ESE visible
18 Nov 6.2 20:23:02 10° WSW 20:24:54 17° W 20:24:54 17° W visible
19 Nov 5.4 03:36:13 27° NE 03:37:21 29° NE 03:42:16 10° ESE visible
19 Nov 4.1 05:18:13 21° NW 05:21:39 43° WSW 05:27:00 10° S visible
19 Nov 3.7 18:23:59 10° S 18:29:32 57° ESE 18:30:54 45° ENE visible
19 Nov 5.9 20:09:37 10° WSW 20:12:54 22° WNW 20:12:54 22° WNW visible
20 Nov 5.4 03:24:15 28° ENE 03:24:15 28° ENE 03:28:51 10° ESE visible
20 Nov 4.0 05:06:16 32° WNW 05:08:19 44° WSW 05:13:41 10° S visible
20 Nov 3.8 18:10:38 10° S 18:16:11 56° ESE 18:18:47 31° NE visible
20 Nov 5.7 19:56:12 10° WSW 20:00:43 23° NW 20:00:47 23° NW visible
21 Nov 5.7 03:12:22 24° E 03:12:22 24° E 03:15:27 10° ESE visible
21 Nov 3.9 04:54:23 44° W 04:54:57 45° WSW 05:00:21 10° S visible
21 Nov 3.8 17:57:18 10° S 18:02:50 54° ESE 18:06:34 21° NE visible
21 Nov 5.6 19:42:47 10° WSW 19:47:20 24° NW 19:48:34 22° NW visible
22 Nov 6.2 03:00:33 17° E 03:00:33 17° E 03:02:03 10° ESE visible
22 Nov 4.2 04:42:34 42° SW 04:42:34 42° SW 04:47:01 10° S visible
22 Nov 3.9 17:43:58 10° S 17:49:29 53° ESE 17:54:15 14° NE visible
22 Nov 5.7 19:29:23 10° WSW 19:33:58 24° NW 19:36:14 19° NNW visible
23 Nov 4.9 04:30:46 29° SSW 04:30:46 29° SSW 04:33:41 10° S visible
23 Nov 3.9 17:30:37 10° S 17:36:07 52° ESE 17:41:41 10° NNE visible
23 Nov 5.6 19:15:58 10° WSW 19:20:36 25° NW 19:23:47 16° N visible
24 Nov 5.6 04:18:57 18° S 04:18:57 18° S 04:20:21 10° S visible
24 Nov 4.0 17:17:17 10° S 17:22:47 51° ESE 17:28:19 10° NNE visible
24 Nov 5.6 19:02:34 10° WSW 19:07:13 25° NW 19:11:15 13° N visible
25 Nov 4.0 17:03:57 10° S 17:09:25 50° ESE 17:14:57 10° NE visible
25 Nov 5.6 18:49:09 10° WSW 18:53:51 26° NW 18:58:37 10° N visible
26 Nov 4.0 16:50:37 10° S 16:56:04 49° ESE 17:01:35 10° NE visible
26 Nov 5.6 18:35:44 10° WSW 18:40:28 26° NW 18:45:16 10° N visible
